QPF
0.01 0.00 0.00 0.00 0.00 0.00 0.03 0.05 0.02 0.03 0.03 0.01 0.00 0.00 0.00 0.01 0.00 0.01 0.01 0.01 0.00 0.00 0.00 0.00 0.00 0.00 0.00 0.00 0.00 0.00 0.00 0.01 0.01 0.01 0.01 0.01 0.01 0.01 0.00 0.01 0.02 0.04 0.04
0.00 0.00 0.00 0.01 0.00 0.00 0.00 0.03 0.03 0.05 0.04 0.02 0.01 0.00 0.00 0.00 0.00 0.01 0.01 0.02 0.01 0.00 0.00 0.00 0.00 0.00 0.00 0.00 0.00 0.00 0.00 0.00 0.01 0.00 0.00 0.00 0.00 0.00 0.00 0.00 0.01 0.02 0.03
0.00 0.00 0.00 0.01 0.02 0.02 0.03 0.03 0.04 0.04 0.04 0.04 0.02 0.02 0.01 0.00 0.00 0.01 0.00 0.01 0.01 0.00 0.00 0.00 0.00 0.00 0.00 0.00 0.00 0.00 0.00 0.00 0.00 0.00 0.00 0.00 0.00 0.00 0.00 0.00 0.00 0.02 0.03
0.00 0.02 0.02 0.02 0.05 0.07 0.08 0.11 0.09 0.09 0.11 0.11 0.08 0.05 0.02 0.01 0.00 0.00 0.00 0.01 0.01 0.00 0.00 0.01 0.01 0.00 0.00 0.00 0.00 0.00 0.00 0.00 0.00 0.00 0.00 0.00 0.00 0.00 0.00 0.00 0.00 0.01 0.02
0.02 0.05 0.05 0.10 0.13 0.15 0.16 0.12 0.17 0.21 0.22 0.21 0.12 0.08 0.01 0.01 0.01 0.00 0.00 0.00 0.00 0.00 0.00 0.01 0.00 0.01 0.01 0.01 0.01 0.01 0.01 0.00 0.00 0.00 0.00 0.00 0.00 0.00 0.00 0.00 0.00 0.00 0.01
0.06 0.10 0.10 0.15 0.17 0.18 0.17 0.19 0.23 0.24 0.23 0.24 0.12 0.06 0.02 0.01 0.01 0.00 0.00 0.00 0.00 0.00 0.00 0.01 0.05 0.03 0.03 0.01 0.02 0.02 0.02 0.01 0.01 0.00 0.00 0.00 0.00 0.00 0.00 0.00 0.00 0.00 0.00
0.11 0.17 0.15 0.21 0.19 0.18 0.18 0.20 0.22 0.22 0.23 0.28 0.21 0.11 0.04 0.00 0.00 0.00 0.00 0.00 0.00 0.00 0.00 0.01 0.05 0.06 0.07 0.04 0.04 0.03 0.03 0.03 0.03 0.01 0.01 0.00 0.00 0.01 0.01 0.01 0.01 0.01 0.01
0.16 0.18 0.20 0.23 0.25 0.25 0.24 0.26 0.28 0.26 0.25 0.27 0.24 0.18 0.10 0.03 0.01 0.00 0.00 0.00 0.00 0.00 0.00 0.01 0.02 0.05 0.07 0.08 0.13 0.05 0.02 0.04 0.05 0.03 0.02 0.01 0.00 0.00 0.01 0.01 0.01 0.01 0.01
0.22 0.26 0.25 0.28 0.32 0.35 0.34 0.33 0.32 0.33 0.31 0.29 0.26 0.26 0.18 0.11 0.06 0.01 0.00 0.00 0.00 0.01 0.01 0.01 0.02 0.05 0.06 0.07 0.12 0.16 0.05 0.04 0.05 0.06 0.06 0.04 0.01 0.00 0.00 0.01 0.02 0.02 0.01
0.13 0.18 0.22 0.26 0.32 0.38 0.39 0.38 0.38 0.38 0.37 0.33 0.28 0.25 0.22 0.19 0.14 0.05 0.03 0.04 0.06 0.06 0.05 0.03 0.02 0.03 0.03 0.04 0.09 0.18 0.08 0.03 0.04 0.07 0.09 0.08 0.05 0.02 0.01 0.01 0.05 0.06 0.03
0.06 0.10 0.20 0.30 0.39 0.44 0.45 0.43 0.42 0.41 0.40 0.37 0.32 0.28 0.27 0.24 0.19 0.12 0.08 0.15 0.18 0.13 0.10 0.06 0.04 0.03 0.04 0.04 0.07 0.12 0.10 0.05 0.03 0.02 0.03 0.04 0.05 0.04 0.03 0.03 0.05 0.10 0.09
0.06 0.09 0.17 0.25 0.32 0.39 0.43 0.44 0.42 0.41 0.40 0.36 0.31 0.28 0.26 0.23 0.21 0.19 0.14 0.14 0.17 0.19 0.16 0.11 0.08 0.07 0.06 0.05 0.12 0.16 0.12 0.09 0.06 0.03 0.01 0.01 0.02 0.02 0.03 0.03 0.04 0.06 0.08
0.07 0.06 0.08 0.12 0.16 0.21 0.26 0.30 0.31 0.32 0.33 0.32 0.29 0.26 0.24 0.21 0.19 0.18 0.15 0.14 0.15 0.17 0.19 0.16 0.09 0.08 0.06 0.07 0.15 0.16 0.09 0.08 0.05 0.03 0.01 0.01 0.02 0.01 0.01 0.01 0.01 0.02 0.04
0.14 0.11 0.08 0.09 0.12 0.17 0.20 0.23 0.24 0.24 0.24 0.24 0.21 0.20 0.19 0.17 0.15 0.14 0.12 0.10 0.10 0.13 0.18 0.16 0.08 0.06 0.04 0.05 0.07 0.05 0.08 0.06 0.03 0.01 0.01 0.01 0.01 0.01 0.01 0.01 0.01 0.01 0.01
0.18 0.16 0.14 0.14 0.17 0.21 0.23 0.23 0.23 0.22 0.23 0.24 0.22 0.20 0.18 0.17 0.13 0.10 0.08 0.06 0.04 0.06 0.09 0.10 0.05 0.03 0.01 0.03 0.02 0.04 0.15 0.09 0.03 0.01 0.00 0.00 0.00 0.00 0.00 0.01 0.01 0.01 0.01
0.22 0.23 0.20 0.19 0.20 0.20 0.19 0.18 0.20 0.19 0.20 0.21 0.18 0.15 0.15 0.14 0.10 0.08 0.06 0.05 0.04 0.04 0.06 0.06 0.04 0.03 0.03 0.02 0.02 0.03 0.05 0.05 0.02 0.01 0.01 0.00 0.00 0.00 0.00 0.00 0.01 0.00 0.00
0.22 0.24 0.24 0.22 0.19 0.16 0.13 0.12 0.13 0.14 0.16 0.17 0.13 0.10 0.08 0.07 0.07 0.06 0.04 0.03 0.03 0.03 0.04 0.06 0.07 0.08 0.09 0.08 0.07 0.07 0.05 0.05 0.05 0.03 0.01 0.01 0.00 0.00 0.00 0.01 0.01 0.02 0.02
0.28 0.26 0.25 0.22 0.18 0.15 0.12 0.11 0.12 0.15 0.16 0.15 0.11 0.08 0.05 0.04 0.05 0.03 0.02 0.02 0.02 0.02 0.02 0.05 0.07 0.10 0.12 0.10 0.09 0.08 0.07 0.05 0.07 0.04 0.03 0.02 0.01 0.01 0.01 0.01 0.02 0.03 0.04
0.31 0.28 0.25 0.22 0.17 0.15 0.15 0.16 0.15 0.12 0.08 0.05 0.04 0.03 0.03 0.03 0.03 0.02 0.01 0.01 0.01 0.01 0.03 0.06 0.09 0.10 0.10 0.09 0.08 0.08 0.08 0.09 0.09 0.07 0.06 0.03 0.02 0.02 0.02 0.02 0.03 0.04 0.06
0.25 0.23 0.21 0.20 0.17 0.16 0.16 0.14 0.08 0.04 0.03 0.02 0.01 0.01 0.01 0.00 0.00 0.00 0.00 0.01 0.01 0.03 0.05 0.06 0.07 0.07 0.05 0.04 0.05 0.04 0.04 0.08 0.11 0.10 0.10 0.08 0.07 0.05 0.05 0.04 0.04 0.04 0.07
0.19 0.19 0.17 0.13 0.12 0.11 0.09 0.07 0.04 0.02 0.02 0.01 0.00 0.00 0.00 0.00 0.00 0.00 0.00 0.00 0.01 0.03 0.03 0.03 0.03 0.02 0.01 0.01 0.01 0.01 0.02 0.04 0.07 0.08 0.11 0.13 0.13 0.14 0.16 0.13 0.07 0.03 0.06
0.11 0.11 0.09 0.07 0.06 0.03 0.01 0.01 0.01 0.01 0.00 0.00 0.00 0.00 0.00 0.00 0.00 0.00 0.00 0.00 0.00 0.01 0.01 0.02 0.01 0.00 0.00 0.00 0.01 0.02 0.02 0.01 0.02 0.05 0.08 0.12 0.16 0.19 0.20 0.18 0.11 0.05 0.05
0.06 0.06 0.04 0.02 0.01 0.00 0.00 0.00 0.00 0.00 0.00 0.00 0.00 0.00 0.00 0.00 0.00 0.00 0.00 0.00 0.00 0.00 0.00 0.01 0.00 0.00 0.00 0.00 0.01 0.02 0.04 0.04 0.03 0.02 0.05 0.10 0.14 0.19 0.22 0.20 0.15 0.09 0.06
0.05 0.05 0.03 0.01 0.00 0.00 0.00 0.00 0.00 0.00 0.00 0.00 0.00 0.00 0.00 0.00 0.00 0.00 0.00 0.00 0.00 0.00 0.00 0.00 0.00 0.00 0.00 0.00 0.01 0.01 0.03 0.08 0.10 0.07 0.04 0.06 0.09 0.16 0.27 0.31 0.25 0.16 0.10
0.05 0.05 0.03 0.01 0.00 0.00 0.00 0.00 0.00 0.00 0.00 0.00 0.00 0.00 0.00 0.00 0.00 0.00 0.00 0.00 0.00 0.00 0.00 0.00 0.00 0.00 0.00 0.00 0.00 0.00 0.00 0.02 0.06 0.09 0.05 0.06 0.08 0.12 0.20 0.28 0.32 0.28 0.21
0.05 0.04 0.02 0.01 0.00 0.00 0.00 0.00 0.00 0.00 0.00 0.00 0.00 0.00 0.00 0.00 0.00 0.00 0.00 0.00 0.00 0.00 0.00 0.00 0.00 0.00 0.00 0.00 0.00 0.00 0.00 0.00 0.01 0.05 0.04 0.05 0.08 0.10 0.13 0.14 0.19 0.24 0.27
MSLP
1011.48 1011.62 1011.73 1011.82 1011.90 1011.98 1012.09 1012.22 1012.35 1012.48 1012.58 1012.63 1012.62 1012.55 1012.45 1012.34 1012.24 1012.18 1012.19 1012.27 1012.41 1012.60 1012.83 1013.05 1013.26 1013.43 1013.55 1013.64 1013.71 1013.77 1013.85 1013.96 1014.12 1014.33 1014.60 1014.89 1015.21 1015.53 1015.83 1016.11 1016.38 1016.62 1016.88
1010.70 1010.89 1011.06 1011.21 1011.34 1011.47 1011.59 1011.71 1011.84 1011.95 1012.04 1012.09 1012.09 1012.04 1011.96 1011.85 1011.75 1011.68 1011.65 1011.70 1011.81 1011.98 1012.20 1012.44 1012.68 1012.89 1013.05 1013.17 1013.26 1013.32 1013.38 1013.47 1013.61 1013.80 1014.05 1014.35 1014.67 1015.00 1015.32 1015.62 1015.89 1016.15 1016.41
1010.04 1010.26 1010.48 1010.68 1010.87 1011.02 1011.17 1011.29 1011.40 1011.51 1011.59 1011.64 1011.65 1011.62 1011.55 1011.44 1011.31 1011.19 1011.11 1011.09 1011.14 1011.26 1011.45 1011.69 1011.94 1012.19 1012.40 1012.57 1012.69 1012.78 1012.86 1012.95 1013.08 1013.27 1013.51 1013.80 1014.13 1014.47 1014.81 1015.13 1015.42 1015.69 1015.97
1009.50 1009.74 1010.00 1010.24 1010.46 1010.65 1010.81 1010.93 1011.04 1011.13 1011.21 1011.26 1011.28 1011.26 1011.19 1011.07 1010.91 1010.73 1010.57 1010.46 1010.41 1010.46 1010.59 1010.80 1011.05 1011.33 1011.59 1011.81 1011.99 1012.13 1012.24 1012.36 1012.50 1012.69 1012.94 1013.24 1013.58 1013.94 1014.29 1014.63 1014.94 1015.23 1015.52
1009.08 1009.32 1009.60 1009.87 1010.12 1010.33 1010.49 1010.62 1010.72 1010.80 1010.87 1010.93 1010.96 1010.95 1010.88 1010.74 1010.55 1010.31 1010.06 1009.84 1009.69 1009.63 1009.68 1009.84 1010.07 1010.36 1010.65 1010.93 1011.17 1011.37 1011.54 1011.70 1011.87 1012.09 1012.35 1012.66 1013.01 1013.38 1013.74 1014.09 1014.41 1014.72 1015.02
1008.74 1008.97 1009.25 1009.55 1009.82 1010.04 1010.21 1010.33 1010.42 1010.49 1010.56 1010.63 1010.67 1010.67 1010.61 1010.47 1010.24 1009.95 1009.62 1009.30 1009.04 1008.88 1008.83 1008.91 1009.10 1009.37 1009.68 1010.00 1010.29 1010.55 1010.78 1011.00 1011.22 1011.46 1011.75 1012.07 1012.43 1012.80 1013.16 1013.51 1013.84 1014.14 1014.44
1008.43 1008.65 1008.94 1009.25 1009.54 1009.77 1009.95 1010.07 1010.15 1010.22 1010.28 1010.35 1010.41 1010.43 1010.39 1010.25 1010.02 1009.69 1009.31 1008.91 1008.55 1008.28 1008.13 1008.12 1008.25 1008.48 1008.79 1009.12 1009.46 1009.77 1010.05 1010.31 1010.57 1010.85 1011.15 1011.48 1011.84 1012.20 1012.56 1012.90 1013.21 1013.50 1013.79
1008.12 1008.33 1008.62 1008.95 1009.26 1009.52 1009.71 1009.83 1009.91 1009.97 1010.04 1010.12 1010.19 1010.24 1010.22 1010.12 1009.90 1009.56 1009.15 1008.70 1008.27 1007.91 1007.67 1007.57 1007.63 1007.81 1008.08 1008.41 1008.75 1009.09 1009.40 1009.70 1009.99 1010.28 1010.60 1010.93 1011.28 1011.63 1011.96 1012.28 1012.56 1012.83 1013.09
1007.78 1007.99 1008.30 1008.66 1008.99 1009.27 1009.48 1009.61 1009.70 1009.76 1009.83 1009.92 1010.02 1010.10 1010.12 1010.05 1009.87 1009.56 1009.15 1008.68 1008.21 1007.80 1007.49 1007.32 1007.29 1007.41 1007.63 1007.92 1008.24 1008.57 1008.89 1009.20 1009.50 1009.80 1010.11 1010.44 1010.77 1011.09 1011.40 1011.68 1011.93 1012.16 1012.39
1007.43 1007.65 1007.98 1008.36 1008.72 1009.03 1009.26 1009.41 1009.50 1009.57 1009.65 1009.76 1009.87 1009.98 1010.05 1010.03 1009.90 1009.64 1009.27 1008.83 1008.36 1007.92 1007.57 1007.34 1007.25 1007.29 1007.44 1007.67 1007.95 1008.24 1008.54 1008.83 1009.12 1009.41 1009.71 1010.02 1010.32 1010.63 1010.90 1011.15 1011.37 1011.56 1011.75
1007.10 1007.33 1007.67 1008.07 1008.46 1008.78 1009.03 1009.20 1009.30 1009.39 1009.48 1009.59 1009.73 1009.87 1009.98 1010.01 1009.94 1009.75 1009.44 1009.04 1008.61 1008.18 1007.82 1007.55 1007.41 1007.39 1007.47 1007.63 1007.84 1008.07 1008.32 1008.57 1008.83 1009.09 1009.37 1009.66 1009.95 1010.23 1010.49 1010.71 1010.89 1011.04 1011.19
1006.83 1007.06 1007.40 1007.80 1008.19 1008.52 1008.78 1008.96 1009.08 1009.17 1009.27 1009.39 1009.54 1009.71 1009.85 1009.93 1009.93 1009.81 1009.57 1009.25 1008.87 1008.49 1008.14 1007.87 1007.69 1007.62 1007.63 1007.72 1007.85 1008.01 1008.19 1008.39 1008.61 1008.84 1009.10 1009.37 1009.65 1009.91 1010.15 1010.35 1010.50 1010.62 1010.71
1006.65 1006.86 1007.18 1007.55 1007.92 1008.25 1008.50 1008.68 1008.80 1008.90 1009.01 1009.14 1009.30 1009.48 1009.64 1009.77 1009.81 1009.76 1009.60 1009.36 1009.06 1008.74 1008.43 1008.18 1008.00 1007.89 1007.85 1007.87 1007.93 1008.01 1008.12 1008.26 1008.42 1008.62 1008.86 1009.11 1009.38 1009.64 1009.87 1010.06 1010.18 1010.26 1010.31
1006.60 1006.76 1007.03 1007.35 1007.68 1007.97 1008.20 1008.36 1008.48 1008.58 1008.69 1008.83 1008.99 1009.18 1009.36 1009.51 1009.60 1009.60 1009.51 1009.35 1009.13 1008.88 1008.64 1008.43 1008.26 1008.14 1008.07 1008.03 1008.02 1008.04 1008.08 1008.16 1008.27 1008.43 1008.64 1008.88 1009.15 1009.40 1009.63 1009.80 1009.90 1009.93 1009.92
1006.67 1006.78 1006.97 1007.22 1007.47 1007.70 1007.89 1008.04 1008.15 1008.25 1008.36 1008.50 1008.67 1008.85 1009.04 1009.20 1009.31 1009.36 1009.33 1009.24 1009.09 1008.93 1008.76 1008.60 1008.46 1008.35 1008.27 1008.19 1008.14 1008.09 1008.07 1008.09 1008.15 1008.28 1008.46 1008.68 1008.93 1009.17 1009.38 1009.53 1009.60 1009.59 1009.51
1006.87 1006.90 1007.01 1007.17 1007.34 1007.50 1007.64 1007.76 1007.86 1007.96 1008.07 1008.22 1008.39 1008.57 1008.75 1008.92 1009.04 1009.11 1009.13 1009.09 1009.02 1008.92 1008.82 1008.73 1008.63 1008.55 1008.46 1008.37 1008.28 1008.19 1008.12 1008.08 1008.10 1008.18 1008.32 1008.51 1008.73 1008.95 1009.13 1009.25 1009.27 1009.19 1009.04
1007.17 1007.13 1007.16 1007.22 1007.31 1007.40 1007.49 1007.58 1007.67 1007.78 1007.90 1008.05 1008.23 1008.41 1008.59 1008.75 1008.88 1008.96 1009.00 1009.01 1008.99 1008.95 1008.92 1008.88 1008.83 1008.78 1008.70 1008.61 1008.50 1008.37 1008.26 1008.17 1008.14 1008.16 1008.25 1008.40 1008.57 1008.74 1008.87 1008.93 1008.89 1008.75 1008.52
1007.52 1007.44 1007.40 1007.39 1007.41 1007.44 1007.49 1007.56 1007.64 1007.76 1007.90 1008.07 1008.25 1008.44 1008.62 1008.77 1008.90 1008.98 1009.03 1009.06 1009.08 1009.09 1009.10 1009.10 1009.10 1009.07 1009.02 1008.93 1008.80 1008.65 1008.50 1008.37 1008.28 1008.25 1008.27 1008.35 1008.46 1008.56 1008.62 1008.61 1008.50 1008.28 1007.98
1007.91 1007.80 1007.72 1007.66 1007.63 1007.63 1007.65 1007.71 1007.80 1007.94 1008.10 1008.29 1008.49 1008.68 1008.86 1009.01 1009.12 1009.20 1009.25 1009.29 1009.32 1009.36 1009.40 1009.43 1009.46 1009.45 1009.41 1009.32 1009.19 1009.02 1008.84 1008.66 1008.52 1008.43 1008.38 1008.38 1008.41 1008.43 1008.41 1008.31 1008.12 1007.83 1007.47
1008.28 1008.19 1008.10 1008.02 1007.97 1007.95 1007.97 1008.03 1008.14 1008.29 1008.48 1008.69 1008.91 1009.11 1009.29 1009.43 1009.54 1009.60 1009.65 1009.68 1009.71 1009.75 1009.80 1009.84 1009.88 1009.88 1009.85 1009.76 1009.61 1009.43 1009.22 1009.01 1008.82 1008.67 1008.56 1008.48 1008.43 1008.36 1008.25 1008.08 1007.81 1007.47 1007.06
1008.62 1008.56 1008.49 1008.43 1008.38 1008.37 1008.39 1008.47 1008.60 1008.77 1008.99 1009.22 1009.45 1009.67 1009.85 1009.99 1010.08 1010.13 1010.16 1010.17 1010.19 1010.21 1010.25 1010.28 1010.31 1010.31 1010.26 1010.17 1010.02 1009.82 1009.60 1009.36 1009.14 1008.94 1008.77 1008.63 1008.50 1008.36 1008.17 1007.93 1007.62 1007.23 1006.80
1008.91 1008.90 1008.87 1008.84 1008.81 1008.82 1008.87 1008.96 1009.12 1009.31 1009.55 1009.80 1010.05 1010.27 1010.45 1010.58 1010.66 1010.70 1010.70 1010.69 1010.68 1010.68 1010.68 1010.69 1010.69 1010.66 1010.60 1010.49 1010.33 1010.13 1009.89 1009.65 1009.41 1009.18 1008.98 1008.79 1008.61 1008.42 1008.19 1007.90 1007.55 1007.15 1006.73
1009.12 1009.17 1009.19 1009.20 1009.22 1009.26 1009.33 1009.46 1009.63 1009.85 1010.10 1010.36 1010.61 1010.84 1011.01 1011.14 1011.20 1011.22 1011.21 1011.17 1011.12 1011.08 1011.05 1011.01 1010.97 1010.91 1010.82 1010.69 1010.52 1010.31 1010.08 1009.84 1009.60 1009.37 1009.16 1008.96 1008.76 1008.53 1008.28 1007.97 1007.62 1007.23 1006.83
1009.25 1009.36 1009.44 1009.50 1009.56 1009.64 1009.75 1009.90 1010.09 1010.32 1010.58 1010.85 1011.10 1011.32 1011.49 1011.60 1011.66 1011.66 1011.62 1011.56 1011.48 1011.40 1011.32 1011.24 1011.15 1011.05 1010.92 1010.77 1010.58 1010.38 1010.16 1009.93 1009.71 1009.50 1009.31 1009.11 1008.92 1008.70 1008.44 1008.15 1007.81 1007.44 1007.08
1009.30 1009.47 1009.60 1009.72 1009.83 1009.95 1010.09 1010.27 1010.48 1010.73 1010.99 1011.25 1011.50 1011.71 1011.87 1011.97 1012.02 1012.01 1011.96 1011.87 1011.76 1011.65 1011.52 1011.40 1011.26 1011.12 1010.96 1010.78 1010.58 1010.38 1010.17 1009.97 1009.77 1009.60 1009.43 1009.26 1009.09 1008.89 1008.66 1008.39 1008.08 1007.74 1007.42
1009.27 1009.50 1009.69 1009.86 1010.02 1010.19 1010.38 1010.59 1010.82 1011.07 1011.33 1011.58 1011.82 1012.01 1012.17 1012.26 1012.30 1012.29 1012.23 1012.13 1012.01 1011.87 1011.72 1011.56 1011.39 1011.20 1011.01 1010.81 1010.60 1010.39 1010.19 1010.01 1009.85 1009.70 1009.56 1009.43 1009.29 1009.12 1008.91 1008.67 1008.38 1008.08 1007.79
Thickness
5795 5796 5795 5793 5790 5789 5788 5785 5785 5784 5782 5782 5782 5783 5782 5782 5781 5780 5779 5777 5774 5773 5770 5768 5766 5764 5763 5761 5761 5760 5759 5758 5756 5754 5751 5749 5746 5743 5741 5739 5736 5733 5731
5797 5795 5793 5791 5789 5787 5787 5786 5785 5783 5781 5781 5781 5782 5782 5782 5782 5781 5780 5778 5776 5774 5773 5770 5768 5765 5764 5762 5761 5760 5760 5759 5757 5755 5752 5750 5747 5745 5742 5740 5738 5735 5732
5796 5793 5790 5789 5788 5787 5786 5784 5781 5780 5778 5778 5778 5779 5780 5781 5781 5780 5780 5779 5777 5775 5774 5772 5769 5766 5764 5762 5761 5760 5759 5758 5757 5755 5753 5750 5748 5745 5743 5741 5738 5736 5734
5795 5791 5788 5786 5786 5785 5783 5779 5776 5773 5772 5772 5772 5774 5776 5778 5779 5780 5779 5779 5778 5777 5776 5773 5769 5766 5764 5762 5760 5759 5757 5757 5756 5754 5753 5751 5748 5746 5743 5741 5738 5736 5734
5793 5788 5784 5783 5782 5780 5777 5774 5771 5767 5765 5764 5764 5767 5770 5772 5775 5777 5779 5779 5779 5778 5777 5775 5772 5768 5764 5761 5759 5758 5756 5755 5754 5753 5751 5750 5748 5746 5743 5740 5738 5735 5733
5788 5785 5781 5778 5776 5772 5770 5767 5763 5761 5758 5756 5756 5759 5763 5768 5771 5774 5776 5778 5778 5777 5777 5776 5772 5768 5764 5761 5759 5757 5755 5753 5752 5751 5750 5748 5746 5745 5742 5740 5737 5734 5732
5780 5777 5775 5773 5769 5765 5763 5761 5758 5754 5750 5748 5742 5742 5751 5762 5767 5771 5775 5776 5775 5775 5774 5773 5769 5767 5763 5760 5757 5755 5753 5751 5750 5749 5747 5746 5744 5743 5741 5739 5736 5733 5731
5774 5770 5767 5764 5761 5757 5756 5755 5751 5745 5743 5740 5731 5726 5729 5741 5754 5767 5772 5771 5770 5770 5769 5769 5768 5765 5763 5759 5756 5753 5751 5749 5747 5746 5744 5743 5742 5740 5738 5736 5734 5731 5729
5765 5761 5760 5758 5755 5751 5749 5748 5744 5738 5732 5731 5728 5720 5716 5720 5731 5748 5759 5762 5764 5763 5763 5763 5762 5762 5759 5757 5755 5752 5748 5746 5745 5743 5741 5740 5738 5737 5735 5734 5732 5730 5727
5757 5754 5752 5750 5747 5745 5742 5741 5738 5733 5726 5721 5720 5719 5717 5716 5713 5723 5739 5747 5751 5752 5753 5754 5754 5756 5755 5753 5751 5749 5745 5742 5740 5739 5737 5736 5734 5733 5732 5730 5728 5727 5725
5749 5746 5743 5741 5739 5737 5734 5732 5730 5725 5719 5713 5709 5709 5708 5709 5710 5709 5716 5726 5734 5740 5743 5745 5746 5746 5747 5747 5745 5743 5741 5739 5736 5734 5732 5731 5730 5728 5727 5726 5725 5724 5722
5738 5737 5734 5731 5729 5727 5724 5722 5719 5715 5710 5706 5703 5702 5701 5701 5703 5706 5707 5713 5718 5727 5734 5737 5737 5737 5738 5738 5736 5733 5731 5730 5729 5727 5725 5724 5724 5723 5722 5721 5721 5720 5719
5726 5726 5724 5721 5719 5716 5713 5711 5708 5704 5702 5698 5696 5695 5696 5697 5700 5702 5702 5706 5710 5717 5723 5726 5729 5729 5730 5728 5726 5724 5724 5723 5721 5719 5718 5717 5716 5715 5715 5714 5713 5713 5713
5716 5715 5713 5711 5709 5706 5703 5700 5697 5695 5694 5692 5691 5690 5691 5693 5695 5696 5698 5700 5701 5705 5709 5713 5719 5720 5721 5720 5718 5717 5717 5716 5714 5712 5710 5709 5708 5707 5705 5705 5704 5704 5705
5705 5704 5701 5700 5698 5696 5693 5690 5688 5687 5688 5686 5684 5685 5685 5686 5688 5691 5694 5696 5692 5690 5693 5701 5705 5709 5711 5711 5710 5710 5709 5708 5706 5705 5703 5700 5699 5698 5697 5696 5696 5696 5697
5691 5690 5689 5688 5686 5685 5683 5682 5681 5681 5680 5679 5679 5679 5679 5680 5681 5685 5688 5689 5690 5687 5685 5690 5693 5698 5700 5701 5701 5701 5701 5700 5699 5697 5695 5691 5689 5689 5688 5688 5689 5689 5690
5674 5674 5675 5676 5676 5675 5675 5675 5675 5675 5674 5673 5674 5674 5674 5674 5675 5677 5679 5682 5683 5683 5679 5682 5686 5688 5689 5689 5690 5691 5692 5692 5692 5690 5688 5685 5682 5681 5680 5680 5681 5683 5685
5655 5657 5660 5662 5664 5666 5667 5668 5668 5669 5667 5666 5667 5667 5667 5668 5667 5668 5671 5673 5675 5677 5675 5672 5674 5676 5677 5678 5679 5681 5682 5684 5684 5682 5680 5676 5674 5673 5672 5673 5674 5675 5678
5639 5642 5645 5650 5654 5657 5658 5660 5661 5660 5660 5660 5659 5658 5658 5658 5658 5661 5663 5665 5667 5669 5668 5665 5663 5665 5666 5668 5668 5670 5671 5671 5673 5672 5669 5667 5666 5665 5665 5665 5666 5668 5671
5626 5630 5634 5639 5644 5647 5649 5651 5652 5652 5651 5651 5650 5649 5649 5649 5649 5652 5654 5655 5657 5658 5658 5656 5654 5653 5653 5656 5656 5656 5656 5658 5658 5658 5657 5657 5657 5657 5657 5657 5657 5660 5663
5620 5622 5626 5630 5635 5638 5640 5641 5642 5643 5642 5641 5642 5641 5641 5640 5641 5642 5643 5643 5645 5645 5645 5644 5641 5639 5638 5639 5640 5643 5643 5645 5646 5645 5645 5646 5646 5648 5649 5649 5650 5651 5655
5616 5618 5621 5625 5627 5628 5630 5633 5635 5635 5635 5635 5634 5634 5634 5633 5632 5633 5633 5633 5633 5632 5630 5629 5626 5625 5624 5625 5628 5630 5631 5631 5631 5634 5634 5634 5635 5637 5638 5640 5641 5642 5646
5617 5617 5618 5619 5619 5620 5622 5624 5627 5628 5627 5626 5625 5625 5627 5623 5622 5623 5624 5623 5623 5623 5621 5619 5615 5614 5614 5615 5616 5618 5620 5621 5620 5623 5624 5623 5624 5625 5627 5628 5631 5633 5636
5616 5616 5615 5614 5613 5612 5613 5615 5618 5620 5619 5618 5617 5616 5613 5611 5611 5613 5616 5615 5614 5613 5613 5612 5610 5608 5608 5607 5606 5608 5609 5612 5612 5612 5614 5611 5613 5614 5616 5618 5620 5622 5625
5614 5612 5611 5609 5607 5605 5606 5607 5608 5612 5610 5609 5607 5605 5605 5602 5601 5604 5605 5604 5604 5603 5603 5603 5603 5602 5601 5599 5598 5597 5597 5597 5597 5599 5600 5600 5603 5605 5607 5607 5609 5612 5615
5612 5610 5607 5605 5603 5601 5598 5599 5600 5604 5604 5602 5599 5596 5593 5593 5594 5594 5595 5594 5591 5592 5594 5597 5596 5595 5594 5592 5590 5586 5584 5582 5583 5584 5586 5588 5591 5593 5596 5599 5600 5602 5605